Location: Unspecified
(0.0000°N, 0.0000°E)
Time: 19:34:37
(UTC+00:00)

Vanguard 1 Rocket - Pass Details

Date: 25 April 2026
Orbit: 655 x 4212 km, 34.3° (Epoch: 17 May)

Event Time Altitude Azimuth Distance (km) Brightness Sun altitude
Rises 19:44:02 0° 278° (W) 6,484 13.1 -25.7°
Reaches altitude 10° 19:48:58 10° 289° (WNW) 5,963 12.5 -26.9°
Maximum altitude 20:05:24 28° 342° (NNW) 5,660 11.6 -30.9°
Drops below altitude 10° 20:26:07 10° 35° (NE) 7,329 11.8 -35.9°
Sets 20:33:30 0° 46° (NE) 8,115 12.0 -37.6°
